Home   Weather   Cambridge   Past weeks

Flag for United Kingdom Past Weather in Cambridge, England, United Kingdom — Yesterday and Last 2 Weeks

Now
54 °F

Scattered clouds.


Feels Like: 52 °F
Forecast: 50 / 56 °F
Wind: 6 mph from Southwest

Location: Cambridge Airport

Current Time: Dec 10, 2016 at 11:04:12 am

Latest Report: Dec 10, 2016 at 10:20 am


Visibility: 4 mi

Pressure: 30.18 "Hg

Humidity: 94%

Dew Point: 52 °F

Location of CambridgeLocation

Past Weather in Cambridge — Graph

°F

Cambridge Temperature Yesterday

Maximum temperature yesterday: 59 °F (at 1:20 pm)
Minimum temperature yesterday: 54 °F (at 7:50 am)
Average temperature yesterday: 56 °F

High & Low Weather Summary for the Past Weeks

 TemperatureHumidityPressure
High59 °F (Dec 9, 1:20 pm)100% (Nov 26, 8:20 am)30.57 "Hg (Nov 26, 8:20 am)
Low23 °F (Nov 29, 6:50 am)57% (Nov 28, 2:20 pm)30.12 "Hg (Nov 26, 2:20 pm)
Average43 °F86%30.32 "Hg
* Reported Nov 25 9:20 am — Dec 10 9:50 am, Cambridge, Weather by CustomWeather, © 2016

Note: Actual official high and low records may vary slightly from our data, if they occured in-between our weather recording intervals... More about our weather records

Advertising

Cambridge Weather History for the Previous 24 Hours

Scroll right to see more
 ConditionsComfort  
Time TempWeatherWind HumidityBarometerVisibility
9:50 am
Sat, Dec 10
54 °FScattered clouds.7 mph94%30.18 "Hg4 mi
9:20 am52 °FPartly sunny.5 mph100%30.18 "Hg4 mi
8:50 am52 °FPartly sunny.7 mph100%30.15 "Hg4 mi
8:20 am52 °FPartly sunny.6 mph100%30.15 "Hg4 mi
7:50 am52 °FLow clouds.5 mph100%30.15 "Hg4 mi
7:20 am52 °FLow clouds.6 mph100%30.15 "Hg4 mi
5:50 pm
Fri, Dec 9
55 °FClear.14 mph82%30.21 "Hg10 mi
5:20 pm55 °FPassing clouds.12 mph82%30.21 "HgN/A
4:50 pm54 °FClear.12 mph88%30.21 "Hg10 mi
4:20 pm55 °FClear.12 mph82%30.21 "Hg10 mi
3:50 pm55 °FClear.15 mph82%30.21 "Hg10 mi
3:20 pm55 °FSunny.13 mph82%30.21 "Hg10 mi
2:50 pm57 °FSunny.10 mph77%30.21 "Hg10 mi
2:20 pm57 °FSunny.12 mph77%30.21 "Hg10 mi
1:50 pm57 °FSunny.14 mph77%30.21 "Hg10 mi
1:20 pm59 °FPassing clouds.14 mph77%30.24 "HgN/A
12:50 pm57 °FPassing clouds.12 mph82%30.24 "Hg6 mi
12:20 pm57 °FPassing clouds.13 mph82%30.24 "Hg6 mi
11:50 am55 °FPassing clouds.14 mph88%30.24 "Hg6 mi
11:20 am55 °FPassing clouds.12 mph88%30.24 "Hg6 mi
Weather by CustomWeather, © 2016

See weather overviewHow to use our weather pages